040716 704  1.6+  0.1+    050330 360  0.1-  0.4-    050508 J76  0.1-  1.1+  

040716 704  0.6+  0.2-    050330 213  0.1-  0.5-    050508 J76  0.1-  1.0+  

040716 704  0.6-  0.0     050330 J76  0.5-  0.0     050509 415  0.5-  0.1-  

040716 704  0.7+  0.2-    050330 213  0.4-  0.3+    050509 415  0.7-  0.3+  

040716 704  0.4+  0.2+    050330 J76  0.4-  0.1+    050511 I77  0.0   1.1-  

040716 704  0.4+  0.2-    050330 213  0.1-  0.1+    050511 I77 (2.4+  1.6+) 

040716 704  0.7+  0.1-    050330 J76  0.1+  0.1-    050511 I77 (0.8-  2.7+) 

040716 704  1.1+  0.2+    050331 I77  1.0-  0.3+    050529 E12  1.2-  0.2+  

040716 704 (2.3+  0.5+)   050331 I77  0.4+  0.0     050529 E12  0.6-  0.2-  

040716 704  0.7+  0.9+    050331 I77  0.6+  0.4+    050529 E12  0.7-  0.1-  

040716 704  0.1-  0.3-    050331 I77  0.3-  0.1+    050529 E12  1.0-  0.1-  

040716 D74  1.1-  1.1-    050331 333  1.9+  0.3+    051103 349  0.2+  1.9-  

040716 D74  0.2-  0.3-    050331 333 (2.2+  1.6+)   051103 349  0.2-  1.7-  

040716 215  0.5+  0.2+    050331 333  1.2+  1.3+    051103 349  0.4-  1.9-  

040718 704  0.2+  0.3+    050331 333  1.5+  0.9-    051108 349  0.8-  1.7-  

040718 704 (2.7+  0.9+)   050331 333 (2.3+  0.4+)   051108 349  0.6-  0.9-  

040718 704  1.0+  0.9+    050331 333  0.7+  1.3+    051108 349  1.2-  0.8-  

040720 372  1.3-  1.2+    050331 333  0.4+  0.3+    051124 349  0.4-  1.1-  

040720 372  0.5-  1.9+    050331 372  0.2+  0.6+    051124 349  0.7-  1.2-  

040720 104  0.0   0.3+    050331 372  1.2-  1.0+    051124 349  0.8-  1.2-  

040720 104  0.1-  0.1+    050401 423  0.0   0.3-    051201 850  0.1-  0.4+  

040720 104  0.1+  0.3+    050401 423  1.0-  0.4-    051201 850  0.9+  0.5+  

040720 104  0.7-  0.0     050401 423  0.9-  1.0-    051201 850 (2.7+  0.7+) 

040730 859 (1.8-  2.1-)   050401 423  0.0   0.0     051201 850 (3.8+  0.5+) 

040730 859 (2.9-  5.7+)   050401 213  0.4-  0.6+                            

040730 859 (0.9+  2.7-)   050401 213  0.2+  0.6+                            



NAKANO

         **** Don't distribute anyone except personal use only ****

                (C) Copyright 2005 OAA/ComputingSection

write mail from CFAD0::NAKANO on 2005-12-08 01:41:52(JST).

 

    C/2004 L1 (LINEAR)

Epoch 2005 Mar. 11.0 TT = JDT 2453440.5  

T 2005 Mar. 30.09912 TT                                 Nakano

q   2.0474431            (2000.0)            P               Q

z  +0.0011300      Peri.  243.57736     -0.94639644     -0.01922676

 +/-0.0000020      Node    66.17667     +0.06265002     +0.96834392

e   0.9976864      Incl.  159.36175     -0.31687339     +0.24887827

From 371 observations 2004 June 12-2005 May 29, mean residual 0".66.

   (1/a)org.= +0.001384, (1/a)fut.= +0.001358 (+/-0.000002), Q= 7.



NAKANO

         **** Don't distribute anyone except personal use only ****

                (C) Copyright 2005 OAA/ComputingSection

write mail from CFAD0::NAKANO on 2005-11-03 23:34:28(JST).

 



    C/2004 L1 (LINEAR)                                                    

Epoch 2005 Mar. 11.0 TT = JDT 2453440.5  

T 2005 Mar. 30.09681 TT                                 Nakano

q   2.0474671            (2000.0)            P               Q

z  +0.0011199      Peri.  243.57611     -0.94639701     -0.01924494

 +/-0.0000024      Node    66.17651     +0.06263082     +0.96834503

e   0.9977070      Incl.  159.36191     -0.31687548     +0.24887252

From 164 observations 2004 June 12-2005 Feb. 28, mean residual 0".64.

   (1/a)org.= +0.001374, (1/a)fut.= +0.001348 (+/-0.000002), Q= 7.



NAKANO

         **** Don't distribute anyone except personal use only ****

                (C) Copyright 2005 OAA/ComputingSection

write mail from CFAD0::NAKANO on 2005-03-05 03:18:44(JST).

 



◎C/2004 L1の軌道と予報位置です



 2005年の再観測は,赤緯方向に+12"ほどのずれがありました.2月10日と

11日の門田健一氏のCCD全光度は,それぞれ,15.3等と15.2等でした.



    C/2004 L1 (LINEAR)                                                    

Epoch 2005 Mar. 11.0 TT = JDT 2453440.5  

T 2005 Mar. 30.09693 TT                                 Nakano

q   2.0474529            (2000.0)            P               Q

z  +0.0011205      Peri.  243.57646     -0.94639773     -0.01923787

 +/-0.0000024      Node    66.17641     +0.06263771     +0.96834450

e   0.9977058      Incl.  159.36200     -0.31687199     +0.24887513

From 157 observations 2004 June 12-2005 Feb. 11, mean residual 0".60.

   (1/a)org.= +0.001374, (1/a)fut.= +0.001349 (+/-0.000002), Q= 7.

 

Date/        TT  R.A.(2000) Decl.     Delta   r     Daily motion  Mag.  Moon Age

              h    h  m       。  ,                      ,  / PA 。  m1      。

2005 Feb. 20 18  14 48.42  -35 42.3   1.669  2.096    41.7 / 251  14.0  117  .89

          21 18  14 45.18  -35 55.9   1.644  2.093    43.4 / 252  14.0  105  .94

          22 18  14 41.78  -36 09.3   1.619  2.091    45.2 / 253  13.9   93  .98

          23 18  14 38.21  -36 22.6   1.594  2.088    47.0 / 254  13.9   81 1.00

          24 18  14 34.46  -36 35.6   1.570  2.086    48.9 / 255  13.9   69 1.00

          25 18  14 30.53  -36 48.2   1.546  2.084    50.9 / 256  13.8   57  .98

          26 18  14 26.42  -37 00.5   1.522  2.082    52.9 / 257  13.8   45  .94

          27 18  14 22.11  -37 12.4   1.499  2.080    55.0 / 258  13.8   33  .88

          28 18  14 17.60  -37 23.7   1.476  2.078    57.1 / 259  13.7   24  .80

     Mar.  1 18  14 12.88  -37 34.4   1.454  2.076    59.3 / 260  13.7   21  .71

           2 18  14 07.95  -37 44.3   1.432  2.074    61.6 / 261  13.7   26  .61

           3 18  14 02.81  -37 53.5   1.410  2.072    63.9 / 262  13.6   36  .50

           4 18  13 57.46  -38 01.6   1.389  2.070    66.2 / 263  13.6   49  .39

           5 18  13 51.88  -38 08.7   1.369  2.068    68.6 / 265  13.5   62  .28

           6 18  13 46.08  -38 14.6   1.349  2.067    71.0 / 266  13.5   76  .18

           7 18  13 40.06  -38 19.2   1.331  2.065    73.4 / 267  13.5   91  .10

           8 18  13 33.83  -38 22.3   1.312  2.063    75.8 / 268  13.4  105  .04

           9 18  13 27.38  -38 23.7   1.295  2.062    78.3 / 270  13.4  119  .01

          10 18  13 20.72  -38 23.4   1.278  2.061    80.7 / 271  13.4  132  .00

          11 18  13 13.87  -38 21.2   1.262  2.059    83.0 / 272  13.4  143  .02

          12 18  13 06.82  -38 16.9   1.247  2.058    85.3 / 274  13.3  150  .07

          13 18  12 59.60  -38 10.4   1.232  2.057    87.6 / 275  13.3  151  .14

          14 18  12 52.22  -38 01.6   1.219  2.056    89.7 / 277  13.3  146  .22

          15 18  12 44.70  -37 50.4   1.207  2.055    91.8 / 278  13.3  137  .30

          16 18  12 37.05  -37 36.6   1.195  2.054    93.7 / 279  13.2  126  .40

          17 18  12 29.30  -37 20.2   1.185  2.053    95.5 / 281  13.2  115  .49

          18 18  12 21.48  -37 01.1   1.176  2.052    97.1 / 282  13.2  104  .59

          19 18  12 13.60  -36 39.4   1.168  2.051    98.5 / 284  13.2   92  .68

          20 18  12 05.69  -36 14.9   1.161  2.051    99.7 / 285  13.2   80  .76

          21 18  11 57.78  -35 47.7   1.155  2.050   100.8 / 287  13.2   69  .84

          22 18  11 49.89  -35 17.8   1.150  2.049   101.6 / 288  13.1   58  .90

          23 18  11 42.05  -34 45.4   1.146  2.049   102.2 / 289  13.1   48  .95

          24 18  11 34.29  -34 10.5   1.144  2.048   102.5 / 291  13.1   40  .99

          25 18  11 26.62  -33 33.3   1.143  2.048   102.6 / 292  13.1   36 1.00

          26 18  11 19.07  -32 53.8   1.143  2.048   102.5 / 293  13.1   36  .99

          27 18  11 11.66  -32 12.4   1.144  2.048   102.1 / 295  13.1   41  .96

          28 18  11 04.40  -31 29.1   1.146  2.048   101.4 / 296  13.1   50  .91

          29 18  10 57.32  -30 44.3   1.150  2.047   100.6 / 297  13.1   61  .84

          30 18  10 50.42  -29 58.0   1.154  2.047    99.5 / 298  13.1   74  .75

          31 18  10 43.72  -29 10.5   1.160  2.048    98.2 / 299  13.2   86  .64

     Apr.  1 18  10 37.22  -28 22.1   1.167  2.048    96.7 / 300  13.2   99  .53

NAKANO

         **** Don't distribute anyone except personal use only ****

                (C) Copyright 2005 OAA/ComputingSection

write mail from CFAD0::NAKANO on 2005-02-19 04:10:43(JST).



    C/2004 L1 (LINEAR)                                                    

Epoch 2005 Mar. 11.0 TT = JDT 2453440.5  

T 2005 Mar. 30.09983 TT                                 Nakano

q   2.0470470            (2000.0)            P               Q

z  +0.0011410      Peri.  243.59004     -0.94639546     -0.01903385

 +/-0.0000507      Node    66.17774     +0.06285102     +0.96833116

e   0.9976644      Incl.  159.36097     -0.31683653     +0.24894272

From 141 observations 2004 June 12-Sept. 2, mean residual 0".58.

   (1/a)org.= +0.001395, (1/a)fut.= +0.001369 (+/-0.000051), Q= 5.



NAKANO

         **** Don't distribute anyone except personal use only ****

                (C) Copyright 2005 OAA/ComputingSection

write mail from CFAD0::NAKANO on 2005-02-04 04:54:38(JST).





    C/2004 L1 (LINEAR)                                                    

Epoch 2005 Mar. 11.0 TT = JDT 2453440.5  

T 2005 Mar. 30.10387 TT                                 Nakano

q   2.0469751            (2000.0)            P               Q

z  +0.0011583      Peri.  243.59308     -0.94639509     -0.01898802

 +/-0.0001214      Node    66.17802     +0.06289886     +0.96832813

e   0.9976290      Incl.  159.36076     -0.31682813     +0.24895801

From 137 observations 2004 June 12-Aug. 13, mean residual 0".59.

   (1/a)org.= +0.001412, (1/a)fut.= +0.001386 (+/-0.000121), Q= 5.



NAKANO

         **** Don't distribute anyone except personal use only ****

                (C) Copyright 2004 OAA/ComputingSection

write mail from CFAD0::NAKANO on 2004-09-05 02:52:38(JST).

 



    C/2004 L1 (LINEAR)                                                    

T 2005 Mar. 29.84380 TT                                 Nakano

q   2.0538468            (2000.0)            P               Q

